GW3457 Weather Reports


Display with metric or nautical units.
time (UTC)temp
F
wind
direction
speed
MPH
gust
MPH
rain 1hr
in
rain 24hr
in
rain mn
in
humidity
%
barometer
mb
20260510123052 55 0 0.0 2.0 0.00 0.12 0.01 86 1013.3
20260510121552 54 0 0.0 1.0 0.00 0.12 0.01 88 1013.2
20260510120049 53 13 0.0 1.0 0.00 0.12 0.01 92 1013.1
20260510114557 51 0 0.0 2.0 0.00 0.14 0.01 93 1013.1
20260510113055 50 0 0.0 4.0 0.00 0.14 0.01 93 1013.0
20260510111545 49 13 0.0 5.0 0.00 0.14 0.01 94 1012.8
20260510110048 48 178 1.0 6.0 0.00 0.14 0.01 94 1012.7
20260510104548 47 360 1.0 3.0 0.00 0.14 0.01 94 1012.5
20260510103053 46 360 1.0 4.0 0.01 0.14 0.01 93 1012.2
20260510101558 47 360 0.0 2.0 0.01 0.14 0.01 93 1012.3
20260510100054 47 360 0.0 2.0 0.01 0.14 0.01 93 1012.1
20260510094551 47 0 0.0 1.0 0.01 0.14 0.01 93 1012.1
20260510093045 48 0 0.0 3.0 0.00 0.13 0.00 94 1012.1
20260510091546 48 0 1.0 4.0 0.00 0.13 0.00 93 1012.1
20260510090048 48 360 1.0 5.0 0.00 0.13 0.00 93 1011.7
20260510084608 47 360 1.0 5.0 0.00 0.13 0.00 93 1011.8
20260510083043 47 0 1.0 3.0 0.00 0.13 0.00 93 1011.2
20260510081549 48 0 1.0 4.0 0.00 0.13 0.00 93 1011.3
20260510074552 48 0 1.0 3.0 0.00 0.13 0.00 93 1011.1
20260510073053 49 0 0.0 2.0 0.00 0.13 0.00 92 1011.1
20260510071547 49 360 2.0 5.0 0.00 0.13 0.00 92 1011.2
20260510070050 49 360 2.0 6.0 0.00 0.13 0.00 92 1011.2
20260510064552 49 360 0.0 3.0 0.00 0.13 0.00 91 1011.3
20260510063047 50 360 0.0 3.0 0.00 0.13 0.00 91 1011.3
20260510061549 50 0 0.0 3.0 0.00 0.13 0.00 91 1011.6
20260510060050 51 360 1.0 6.0 0.00 0.13 0.00 92 1011.5
20260510054546 48 33 5.0 13.0 0.00 0.13 0.00 92 1011.7
20260510053046 49 51 0.0 2.0 0.00 0.13 0.00 91 1011.0
20260510051603 49 0 0.0 3.0 0.00 0.13 0.00 91 1011.0
20260510050059 50 0 0.0 2.0 0.00 0.13 0.00 91 1010.9
20260510044549 50 0 0.0 4.0 0.00 0.13 0.00 91 1010.9
20260510043047 50 153 1.0 3.0 0.00 0.13 0.00 91 1010.7
20260510041546 51 360 1.0 5.0 0.00 0.13 0.00 91 1010.7
20260510040046 51 184 3.0 6.0 0.00 0.13 0.00 91 1010.8
20260510034550 51 0 0.0 4.0 0.00 0.13 0.13 91 1010.6
20260510033054 51 0 0.0 2.0 0.00 0.13 0.13 91 1010.3
20260510031548 52 360 1.0 4.0 0.00 0.13 0.13 90 1010.7
20260510030056 52 360 1.0 4.0 0.00 0.13 0.13 90 1010.8
20260510024547 53 0 0.0 4.0 0.00 0.13 0.13 90 1010.7
20260510023048 53 360 1.0 4.0 0.00 0.13 0.13 90 1010.5
20260510021636 54 0 0.0 1.0 0.00 0.13 0.13 89 1010.4
20260510020046 54 0 0.0 3.0 0.00 0.13 0.13 88 1010.3
20260510014557 55 0 0.0 0.0 0.00 0.13 0.13 87 1009.9
20260510013057 55 208 0.0 4.0 0.00 0.13 0.13 87 1009.8
20260510011550 57 179 1.0 3.0 0.00 0.13 0.13 85 1009.3
20260510010056 57 179 0.0 2.0 0.00 0.13 0.13 84 1009.2
20260510004546 58 98 0.0 3.0 0.00 0.13 0.13 83 1008.8
20260510003046 60 0 0.0 2.0 0.00 0.13 0.13 80 1008.7
20260510001553 61 0 0.0 1.0 0.00 0.13 0.13 79 1008.4
20260510000050 61 0 0.0 2.0 0.00 0.13 0.13 77 1008.4
20260509234548 62 0 0.0 1.0 0.00 0.13 0.13 74 1008.4
20260509233043 63 0 0.0 1.0 0.00 0.13 0.13 74 1008.4
20260509231550 64 0 0.0 1.0 0.00 0.13 0.13 70 1008.3
20260509230053 66 279 0.0 2.0 0.00 0.13 0.13 68 1008.4
20260509224552 67 0 0.0 2.0 0.00 0.13 0.13 66 1008.3
20260509223053 67 309 2.0 3.0 0.00 0.13 0.13 63 1008.4
20260509221556 67 302 0.0 2.0 0.00 0.13 0.13 63 1008.6
20260509220050 66 343 2.0 4.0 0.00 0.13 0.13 65 1008.6
20260509214549 66 336 1.0 4.0 0.00 0.13 0.13 65 1008.8
20260509213105 67 316 2.0 4.0 0.00 0.13 0.13 64 1008.6
20260509211549 67 314 2.0 4.0 0.00 0.13 0.13 65 1008.8
20260509210051 65 0 1.0 4.0 0.00 0.13 0.13 70 1008.8
20260509204549 64 16 2.0 7.0 0.00 0.13 0.13 70 1009.2
20260509203046 65 16 3.0 8.0 0.00 0.13 0.13 68 1009.3
20260509201555 65 0 3.0 8.0 0.00 0.13 0.13 69 1009.4
20260509200052 63 13 2.0 8.0 0.00 0.13 0.13 74 1009.3
20260509194556 62 26 3.0 7.0 0.00 0.13 0.13 75 1009.5
20260509193047 62 5 3.0 7.0 0.00 0.13 0.13 76 1009.7
20260509191556 61 18 3.0 8.0 0.00 0.13 0.13 78 1009.6
20260509190049 61 17 3.0 5.0 0.00 0.13 0.13 77 1009.7
20260509184550 61 0 0.0 4.0 0.00 0.13 0.13 77 1009.7
20260509183054 61 0 1.0 7.0 0.00 0.13 0.13 75 1009.8
20260509181551 61 28 3.0 8.0 0.00 0.13 0.13 77 1009.9
20260509180055 61 360 1.0 4.0 0.00 0.13 0.13 76 1009.7
20260509174549 59 15 1.0 5.0 0.00 0.13 0.13 77 1010.3
20260509173059 60 16 0.0 4.0 0.00 0.13 0.13 81 1010.4
20260509171549 58 11 2.0 4.0 0.00 0.13 0.13 81 1010.3
20260509170049 59 13 0.0 3.0 0.00 0.13 0.13 82 1010.7
20260509164546 58 0 0.0 3.0 0.00 0.13 0.13 82 1011.0
20260509163051 58 141 0.0 2.0 0.00 0.13 0.13 83 1011.0
20260509161557 56 32 1.0 4.0 0.00 0.13 0.13 84 1011.2
20260509160051 56 0 0.0 2.0 0.00 0.13 0.13 84 1011.2
20260509154551 56 0 2.0 5.0 0.00 0.13 0.13 84 1011.2
20260509153058 55 22 1.0 4.0 0.00 0.13 0.13 85 1011.2
20260509151546 55 25 0.0 4.0 0.00 0.13 0.13 86 1011.1
20260509150039 54 13 1.0 4.0 0.00 0.13 0.13 88 1011.1
20260509144552 53 9 1.0 4.0 0.01 0.13 0.13 89 1011.1
20260509143051 51 0 1.0 4.0 0.02 0.13 0.13 89 1011.1
20260509141549 51 0 0.0 3.0 0.02 0.13 0.13 89 1011.4
20260509140103 51 289 1.0 5.0 0.04 0.13 0.13 87 1011.7
20260509134549 51 210 0.0 4.0 0.05 0.12 0.12 87 1011.3
20260509133049 51 0 2.0 7.0 0.07 0.11 0.11 86 1011.2
20260509131549 51 0 0.0 1.0 0.08 0.11 0.11 90 1011.3
20260509130049 51 0 0.0 3.0 0.07 0.09 0.09 89 1011.5
20260509124550 51 150 0.0 3.0 0.07 0.07 0.07 88 1011.4